Location: Pedimozza
(42.0500°N, 9.3500°E)
Time: 23:14:45
(UTC+00:00)

CZ-4C R/B - Pass Details

Date: 19 August 2019
Orbit: 654 x 1348 km, 63.4° (Epoch: 17 October)

Event Time Altitude Azimuth Distance (km) Brightness Sun altitude
Exits shadow 22:01:44 13° 56° (NE) 2,201 4.4 -32.0°
Drops below altitude 10° 22:02:31 10° 52° (NE) 2,472 4.7 -32.0°
Sets 22:05:26 0° 43° (NE) 3,531 5.7 -32.2°
